This is the latest recevied weather packets stored in our database for station/object OK2ILA-1. If no packets are shown the sender has not sent any weather packets the latest 10 day(s).
| Time | Temp. | Humidity | Pressure | Rain* | Wind** | Luminosity | Snow |
|---|---|---|---|---|---|---|---|
| 1777868823 | 13.33° C | 100% | 1016.7 hPa | 0 mm | - | - | - |
| 1777868102 | 12.78° C | 100% | 1016.5 hPa | 0 mm | - | - | - |
| 1777867381 | 12.78° C | 100% | 1016.7 hPa | 0 mm | - | - | - |
| 1777866661 | 12.78° C | 100% | 1016.5 hPa | 0 mm | - | - | - |
| 1777865940 | 12.78° C | 100% | 1016.4 hPa | 0 mm | - | - | - |
| 1777865219 | 13.33° C | 100% | 1016.3 hPa | 0 mm | - | - | - |
| 1777864499 | 13.33° C | 100% | 1016.3 hPa | 0 mm | - | - | - |
| 1777863778 | 13.89° C | 100% | 1016.3 hPa | 0 mm | - | - | - |
| 1777863057 | 13.89° C | 100% | 1016.2 hPa | 0 mm | - | - | - |
| 1777862337 | 13.89° C | 100% | 1016.1 hPa | 0 mm | - | - | - |
| 1777861616 | 13.89° C | 100% | 1016 hPa | 0 mm | - | - | - |
| 1777860895 | 13.89° C | 100% | 1016.1 hPa | 0 mm | - | - | - |
| 1777860175 | 13.89° C | 100% | 1016.1 hPa | 0 mm | - | - | - |
| 1777859454 | 13.89° C | 100% | 1016 hPa | 0 mm | - | - | - |
| 1777858733 | 13.89° C | 100% | 1016 hPa | 0 mm | - | - | - |
| 1777858013 | 13.89° C | 100% | 1016.1 hPa | 0 mm | - | - | - |
| 1777857292 | 13.89° C | 100% | 1016.1 hPa | 0 mm | - | - | - |
| 1777856571 | 14.44° C | 100% | 1016.1 hPa | 0 mm | - | - | - |
| 1777855851 | 13.89° C | 100% | 1016.2 hPa | 0 mm | - | - | - |
| 1777855130 | 14.44° C | 100% | 1016.2 hPa | 0 mm | - | - | - |
| 1777854409 | 14.44° C | 100% | 1016.2 hPa | 0 mm | - | - | - |
| 1777853689 | 14.44° C | 100% | 1016.3 hPa | 0 mm | - | - | - |
| 1777852968 | 14.44° C | 100% | 1016.3 hPa | 0 mm | - | - | - |
| 1777852247 | 14.44° C | 100% | 1016.2 hPa | 0 mm | - | - | - |
| 1777851527 | 14.44° C | 100% | 1016.3 hPa | 0 mm | - | - | - |
* Rain latest hour (hover to see other rain measurements)
** Current wind speed in m/s (hover to see current wind gust speed)